User: anonymous   Login
Location: Unspecified
(0.0000°N, 0.0000°E)
Time: 06:01:16
(UTC+00:00)
Language:

Meteor PRIRODA - Orbit

View from above orbital plane
View from above orbital plane
View from above satellite
View from above satellite

Ground track
Ground track

The orbit data is extracted from the following two-line orbital elements,

1 12585U 81065A   18017.50736016 +.00000590 +00000-0 +29913-4 0  9998
2 12585 097.4561 359.0985 0015116 017.3215 342.8533 15.20735749989026
Epoch (UTC): 17 January 2018 12:10:35
Eccentricity: 0.0015116
inclination: 97.4561°
perigee height: 493 km
apogee height: 514 km
right ascension of ascending node: 359.0985°
argument of perigee: 17.3215°
revolutions per day: 15.20735749
mean anomaly at epoch: 342.8533°
orbit number at epoch: 98902

The dashed part of the orbit path shows where the satellite is in the earth's shadow,  

DLR